Weather History for Luxor, Egypt

Change the Weather History Date:

Friday, June 14, 2013

  Actual Average Record
Temperature  
Mean Temperature 87 °F -  
Max Temperature 100 °F 102 °F - ()
Min Temperature 74 °F 75 °F - ()
Cooling Degree Days 22    
Growing Degree Days 37 (Base 50)    
Moisture  
Dew Point 56 °F    
Average Humidity 34    
Maximum Humidity 73    
Minimum Humidity 15    
Precipitation  
Precipitation 0.00 in 0.00 in - ()
Sea Level Pressure  
Sea Level Pressure 29.77 in    
Wind  
Wind Speed 4 mph ()    
Max Wind Speed 12 mph    
Max Gust Speed -    
Visibility 6.0 miles    
Events      
T = Trace of Precipitation, MM = Missing Value Source: Averaged Metar Reports

Daily Weather History Graph

Daily Weather History Graph

Search for Another Location

Airport:

Trip Planner

Search our weather history database for the weather conditions in past years. The results will help you decide how hot, cold, wet, or windy it might be!

Date:

Astronomy

Jun. 14, 2013 Rise Set
Actual Time 4:57 AM EET 6:41 PM EET
Civil Twilight 4:31 AM EET 7:07 PM EET
Nautical Twilight 4:00 AM EET 7:38 PM EET
Astronomical Twilight 3:27 AM EET 8:11 PM EET
Moon 9:47 AM EET (6/14) 10:36 PM EET (6/14)
Length of Visible Light 14h 35m
Length of Day
13h 43m
Waxing Crescent, 28% of the Moon is Illuminated
Jun 14
Waxing Crescent
Jun 16
First Quarter
Jun 23
Full
Jun 30
Last Quarter
Jul 8
New

Hourly Weather History & Observations

Time (EET) Temp. Heat Index Dew Point Humidity Pressure Visibility Wind Dir Wind Speed Gust Speed Precip Events Conditions
12:00 AM 82.4 °F - 51.8 °F 35% 29.77 in - Calm Calm - N/A   Clear
1:00 AM 73.4 °F - 64.4 °F 73% 29.77 in - Calm Calm - N/A   Clear
2:00 AM 82 °F - 55 °F 29% 29.75 in 6 mi Calm Calm - -  
2:00 AM 82.4 °F 81.7 °F 55.4 °F 39% 29.77 in - Calm Calm - N/A   Clear
3:00 AM 80.6 °F 80.5 °F 55.4 °F 42% 29.77 in - Calm Calm - N/A   Clear
4:00 AM 77.0 °F - 55.4 °F 47% 29.77 in - WNW 3.5 mph - N/A   Clear
5:00 AM 77.0 °F - 55.4 °F 47% 29.77 in - Calm Calm - N/A   Clear
6:00 AM 77.0 °F - 55.4 °F 47% 29.77 in - Calm Calm - N/A   Clear
7:00 AM 82.4 °F 82.5 °F 59.0 °F 45% 29.80 in - SW 3.5 mph - N/A   Clear
8:00 AM 86 °F - 59 °F 30% 29.80 in 6 mi NW 4.6 mph - -  
8:00 AM 86.0 °F 85.4 °F 59.0 °F 40% 29.80 in - NW 4.6 mph - N/A   Clear
9:00 AM 89.6 °F 88.1 °F 57.2 °F 33% 29.80 in - NW 8.1 mph - N/A   Clear
10:00 AM 91.4 °F 90.7 °F 59.0 °F 34% 29.80 in - NW 11.5 mph - N/A   Clear
11:00 AM 95.0 °F 94.4 °F 59.0 °F 30% 29.80 in - NW 9.2 mph - N/A   Clear
12:00 PM 96.8 °F 95.1 °F 55.4 °F 25% 29.80 in - NW 8.1 mph - N/A   Clear
1:00 PM 98.6 °F 97.6 °F 57.2 °F 25% 29.77 in - NW 9.2 mph - N/A   Clear
2:00 PM 100 °F - 57 °F 15% 29.73 in 6 mi NW 9.2 mph - -  
2:00 PM 100.4 °F 99.7 °F 57.2 °F 24% 29.74 in - NW 9.2 mph - N/A   Clear
3:00 PM 98.6 °F 97.6 °F 57.2 °F 25% 29.74 in - NW 10.4 mph - N/A   Clear
4:00 PM 100.4 °F 99.7 °F 57.2 °F 24% 29.74 in - NW 11.5 mph - N/A   Clear
5:00 PM 96.8 °F 95.1 °F 55.4 °F 25% 29.74 in - NW 9.2 mph - N/A   Clear
6:00 PM 93.2 °F 90.8 °F 53.6 °F 26% 29.74 in - WNW 11.5 mph - N/A   Clear
7:00 PM 91.4 °F - 51.8 °F 26% 29.74 in - WNW 11.5 mph - N/A   Clear
8:00 PM 87.8 °F - 51.8 °F 29% 29.77 in - WNW 6.9 mph - N/A   Clear
9:00 PM 87.8 °F - 51.8 °F 29% 29.77 in - WNW 6.9 mph - N/A   Clear
10:00 PM 84.2 °F - 51.8 °F 33% 29.80 in - NW 3.5 mph - N/A   Clear
11:00 PM 86.0 °F - 51.8 °F 31% 29.80 in - NW 6.9 mph - N/A   Clear